User: anonymous   Login
Location: Brede
(50.9167°N, 0.6000°E)
Time: 18:00:08
(UTC+00:00)
Language:

Cosmos 1726 - Orbit

View from above orbital plane
View from above orbital plane
View from above satellite
View from above satellite

Ground track
Ground track

The orbit data is extracted from the following two-line orbital elements,

1 16495U 86006A   20296.05805567  .00001269  00000-0  49180-4 0  9994
2 16495  82.4696 283.0471 0011462 217.4259 142.6181 15.25156706902597
Epoch (UTC): 22 October 2020 01:23:36
Eccentricity: 0.0011462
inclination: 82.4696°
perigee height: 482 km
apogee height: 498 km
right ascension of ascending node: 283.0471°
argument of perigee: 217.4259°
revolutions per day: 15.25156706
mean anomaly at epoch: 142.6181°
orbit number at epoch: 90259

The dashed part of the orbit path shows where the satellite is in the earth's shadow,  

DLR